This is the latest recevied weather packets stored in our database for station/object DG0LHZ-10. If no packets are shown the sender has not sent any weather packets the latest 10 day(s).
| Time | Temp. | Humidity | Pressure | Rain* | Wind** | Luminosity | Snow |
|---|---|---|---|---|---|---|---|
| 1777595645 | 10° C | 37% | 1031 hPa | - | - | - | - |
| 1777594745 | 10.56° C | 36% | 1031 hPa | - | - | - | - |
| 1777593845 | 10.56° C | 36% | 1031.1 hPa | - | - | - | - |
| 1777592945 | 11.11° C | 35% | 1031.1 hPa | - | - | - | - |
| 1777592045 | 11.11° C | 35% | 1031.1 hPa | - | - | - | - |
| 1777591145 | 11.67° C | 35% | 1031.1 hPa | - | - | - | - |
| 1777590245 | 11.67° C | 34% | 1031 hPa | - | - | - | - |
| 1777589345 | 12.22° C | 34% | 1031.1 hPa | - | - | - | - |
| 1777588445 | 12.22° C | 33% | 1031.2 hPa | - | - | - | - |
| 1777587545 | 12.78° C | 33% | 1031.3 hPa | - | - | - | - |
| 1777586645 | 13.33° C | 32% | 1031.2 hPa | - | - | - | - |
| 1777585745 | 13.33° C | 32% | 1031.2 hPa | - | - | - | - |
| 1777584844 | 13.89° C | 31% | 1031.2 hPa | - | - | - | - |
| 1777583944 | 14.44° C | 31% | 1031.2 hPa | - | - | - | - |
| 1777583044 | 14.44° C | 31% | 1031 hPa | - | - | - | - |
| 1777582144 | 15° C | 31% | 1031 hPa | - | - | - | - |
| 1777581244 | 15.56° C | 30% | 1031 hPa | - | - | - | - |
| 1777580344 | 16.11° C | 29% | 1031.1 hPa | - | - | - | - |
| 1777579444 | 16.11° C | 29% | 1031.2 hPa | - | - | - | - |
| 1777578544 | 16.67° C | 29% | 1031 hPa | - | - | - | - |
| 1777577644 | 17.22° C | 28% | 1030.9 hPa | - | - | - | - |
| 1777576744 | 17.78° C | 28% | 1030.9 hPa | - | - | - | - |
| 1777575844 | 18.33° C | 28% | 1030.8 hPa | - | - | - | - |
| 1777574944 | 18.89° C | 27% | 1030.7 hPa | - | - | - | - |
| 1777574044 | 20° C | 27% | 1030.7 hPa | - | - | - | - |
* Rain since midnight (hover to see other rain measurements)
** Current wind speed in m/s (hover to see current wind gust speed)